{"data":{"norad_id":63141,"epoch":"2026-05-24T09:55:16.151232Z","epoch_age_seconds":122357,"freshness":"FRESH","line1":"1 63141U 25043K   26144.41338138  .00137295  00000+0  10502-2 0  9993","line2":"2 63141  43.0018 154.0844 0001579 267.7019  92.3668 15.70969316 71204","mean_motion":15.70969316,"eccentricity":0.0001579,"inclination_deg":43.0018,"raan_deg":154.0844,"arg_perigee_deg":267.7019,"mean_anomaly_deg":92.3668,"bstar":0.0010502,"rev_number":7120,"period_min":91.663152509339,"perigee_km":355.06213754767,"apogee_km":357.18881763809,"semimajor_km":6734.2624775929,"source":"CELESTRAK","updated_at":"2026-05-25T13:38:19.915654Z"}}